Regional Weather Roundup
Issued by NWS

Home | Current Version | Previous Version | Text Only | Print | Product List | Glossary On
Versions: 1 2 3 4 5 6 7 8 9 10 11 12 13 14 15 16 17 18 19 20 21 22 23 24 25 26 27 28 29 30 31 32 33 34 35 36 37 38 39 40 41 42 43 44 45 46 47 48 49 50
000
ASUS43 KMKX 290611
RWRWI

WISCONSIN REGIONAL WEATHER ROUNDUP
NATIONAL WEATHER SERVICE MILWAUKEE/SULLIVAN WI
100 AM CDT WED JUL 29 2015

NOTE: "FAIR" INDICATES FEW OR NO CLOUDS BELOW 12,000 FEET WITH NO
SIGNIFICANT WEATHER AND/OR OBSTRUCTIONS TO VISIBILITY.

WIZ001-002-006>008-014>016-023>028-290700-
NORTHWEST WISCONSIN

CITY           SKY/WX    TMP DP  RH WIND       PRES   REMARKS
SUPERIOR ARPT  CLEAR     69  58  69 SW9G16    29.79F
6HR MIN TEMP:  67; 6HR MAX TEMP:  82;

ASHLAND        CLEAR     69  64  84 SW9       29.82R
6HR MIN TEMP:  69; 6HR MAX TEMP:  81; 6HR PCP:  0.03;

HAYWARD        PTCLDY    71  60  68 SW8       29.87F
6HR MIN TEMP:  71; 6HR MAX TEMP:  81;

SIREN          PTCLDY    67  57  69 W7        29.89R
6HR MIN TEMP:  65; 6HR MAX TEMP:  80; 6HR PCP:  0.17;

CUMBERLAND     MOCLDY    63  59  88 SW6       29.91F
RICE LAKE      MOCLDY    67  59  74 SW6       29.91F
6HR MIN TEMP:  67; 6HR MAX TEMP:  79;

CHETEK         MOCLDY    70  60  71 SW3       29.90F
6HR MIN TEMP:  70; 6HR MAX TEMP:  80; 6HR PCP:  0.02;

LADYSMITH      CLOUDY    74  58  58 W10G16    29.91F
6HR MIN TEMP:  74; 6HR MAX TEMP:  81;

EAU CLAIRE     CLOUDY    72  59  63 W7        29.91R
6HR MIN TEMP:  72; 6HR MAX TEMP:  83; 6HR PCP:  0.01;

MENOMONIE      CLOUDY    71  61  72 W5        29.92R
6HR MIN TEMP:  71; 6HR MAX TEMP:  82;

NEW RICHMOND   CLOUDY    66  59  76 SW7       29.93S
6HR MIN TEMP:  66; 6HR MAX TEMP:  81;

OSCEOLA        MOCLDY    67  60  80 SW8       29.94S
6HR MIN TEMP:  67; 6HR MAX TEMP:  80;

$$

WIZ003>005-009-010-017-018-290700-
NORTH CENTRAL WISCONSIN

CITY           SKY/WX    TMP DP  RH WIND       PRES   REMARKS
MANITOWISH WTR CLOUDY    74  72  92 W12G17    29.86S
6HR MIN TEMP:  73; 6HR MAX TEMP:  77;

ARBOR VITAE    CLOUDY    76  73  88 SW8       29.87F
6HR MIN TEMP:  76; 6HR MAX TEMP:  80;

WOODRUFF       CLOUDY    76  73  88 SW8       29.87F
6HR MIN TEMP:  76; 6HR MAX TEMP:  80;

RHINELANDER    LGT RAIN  74  70  87 SW9       29.89F
6HR MIN TEMP:  73; 6HR MAX TEMP:  81; 6HR PCP: TRACE;

EAGLE RIVER    CLOUDY    72  69  90 S5        29.87F
6HR MIN TEMP:  71; 6HR MAX TEMP:  79;

LAND O LAKES   CLOUDY    74  69  83 S9        29.87F
6HR MIN TEMP:  73; 6HR MAX TEMP:  81;

PHILLIPS       CLOUDY    75  70  85 W15G23    29.87F
6HR MIN TEMP:  74; 6HR MAX TEMP:  79;

TOMAHAWK       CLOUDY    73  70  91 CALM      29.89F
6HR MIN TEMP:  71; 6HR MAX TEMP:  79;

MEDFORD        CLOUDY    73  72  94 W10       29.90F
6HR MIN TEMP:  72; 6HR MAX TEMP:  77;

MERRILL        NOT AVBL
$$

WIZ029-030-035-036-043>047-290700-
CENTRAL WISCONSIN

CITY           SKY/WX    TMP DP  RH WIND       PRES   REMARKS
WAUSAU         CLOUDY    75  70  84 SW9       29.88F
6HR MIN TEMP:  75; 6HR MAX TEMP:  83;

MOSINEE        CLOUDY    72  70  94 SW7       29.91F
MARSHFIELD     CLOUDY    75  69  81 SW8       29.90F
6HR MIN TEMP:  75; 6HR MAX TEMP:  81;

STEVENS POINT  CLOUDY    72  69  89 SW5       29.91F
6HR MIN TEMP:  72; 6HR MAX TEMP:  81;

WAUPACA        CLOUDY    74  73  95 S3        29.90F
6HR MIN TEMP:  74; 6HR MAX TEMP:  84;

WAUTOMA        CLOUDY    75  72  91 CALM      29.91F
6HR MIN TEMP:  75; 6HR MAX TEMP:  85;

WISC RAPIDS    CLOUDY    75  69  81 SW7       29.91F
6HR MIN TEMP:  74; 6HR MAX TEMP:  83;

CAMP DOUGLAS   NOT AVBL
$$

WIZ011>013-019>022-031-037>040-048>050-290700-
NORTHEAST WISCONSIN

CITY           SKY/WX    TMP DP  RH WIND       PRES   REMARKS
ANTIGO         CLOUDY    71  69  95 S5        29.91F
SHAWANO        MOCLDY    73  68  84 CALM      29.89F
6HR MIN TEMP:  73; 6HR MAX TEMP:  85;

OCONTO         MOCLDY    73  71  94 S5        29.88F
6HR MIN TEMP:  73; 6HR MAX TEMP:  80;

STURGEON BAY   MOCLDY    72  64  78 S7        29.92F
6HR MIN TEMP:  72; 6HR MAX TEMP:  79;

GREEN BAY      PTCLDY    72  68  87 S7        29.89F
6HR MIN TEMP:  72; 6HR MAX TEMP:  82;

MANITOWOC      MOCLDY    72  68  87 MISG      29.91F
6HR MIN TEMP:  71; 6HR MAX TEMP:  78;

APPLETON       MOCLDY    73  70  88 SW9       29.91F
CLINTONVILLE   MOCLDY    73  70  88 SW6       29.89F
OSHKOSH        MOCLDY    75  71  87 S6        29.90F
6HR MIN TEMP:  71; 6HR MAX TEMP:  81;

$$

WIZ032>034-041-042-053>061-290700-
SOUTHWEST WISCONSIN

CITY           SKY/WX    TMP DP  RH WIND       PRES   REMARKS
LA CROSSE      CLOUDY    77  71  82 W8        29.92R
6HR MIN TEMP:  76; 6HR MAX TEMP:  84;

SPARTA         CLOUDY    74  68  81 CALM      29.92F
6HR MIN TEMP:  74; 6HR MAX TEMP:  81;

VIROQUA        CLOUDY    73  73 100 SW6       29.95F
6HR MIN TEMP:  72; 6HR MAX TEMP:  78;

BOSCOBEL       CLOUDY    74  71  91 SW3       29.93F
6HR MIN TEMP:  74; 6HR MAX TEMP:  80;

PRAIRIE DU CHI CLOUDY    75  70  83 CALM      29.92F
6HR MIN TEMP:  74; 6HR MAX TEMP:  78;

PLATTEVILLE    CLOUDY    73  73  98 SW3       29.94F
6HR MIN TEMP:  73; 6HR MAX TEMP:  79;

$$

WIZ056-057-062-063-064-067-068-290700-
SOUTH CENTRAL WISCONSIN

CITY           SKY/WX    TMP DP  RH WIND       PRES   REMARKS
REEDSBURG      CLOUDY    75  71  85 W6        29.92F
6HR MIN TEMP:  73; 6HR MAX TEMP:  80;

BARABOO/DELLS  CLOUDY    75  68  78 CALM      29.92F
6HR MIN TEMP:  74; 6HR MAX TEMP:  80;

LONE ROCK      CLOUDY    75  72  90 CALM      29.92F
6HR MIN TEMP:  73; 6HR MAX TEMP:  81;

MINERAL POINT  CLOUDY    75  73  94 CALM      29.94F FOG
MADISON        CLOUDY    78  72  81 S3        29.91F HX  80
6HR MIN TEMP:  78; 6HR MAX TEMP:  84;

MIDDLETON      CLOUDY    76  74  92 CALM      29.93F
6HR MIN TEMP:  75; 6HR MAX TEMP:  83;

WATERTOWN      CLOUDY    73  73 100 SW3       29.92F
6HR MIN TEMP:  73; 6HR MAX TEMP:  83;

MONROE         CLOUDY    75  72  88 SW7       29.93F
JANESVILLE     CLOUDY    73  72  94 CALM      29.92F
$$

WIZ051-052-058>065-066-070>072-290700-
SOUTHEAST WISCONSIN

CITY           SKY/WX    TMP DP  RH WIND       PRES   REMARKS
MILWAUKEE      MOCLDY    76  68  76 CALM      29.92F
6HR MIN TEMP:  75; 6HR MAX TEMP:  83;

WAUKESHA       CLOUDY    72  68  88 CALM      29.94F
MILWAUKEE/TIMM MOCLDY    73  66  78 CALM      29.93F
RACINE         CLOUDY    75  70  84 CALM      29.94F
6HR MIN TEMP:  74; 6HR MAX TEMP:  81;

BURLINGTON     CLOUDY    69  68  97 CALM      29.93F FOG
6HR MIN TEMP:  69; 6HR MAX TEMP:  81;

KENOSHA        CLOUDY    76  70  82 S3        29.93F
6HR MIN TEMP:  72; 6HR MAX TEMP:  83;

FOND DU LAC    MOCLDY    75  72  90 SW6       29.91F
6HR MIN TEMP:  74; 6HR MAX TEMP:  82;

SHEBOYGAN      MOCLDY    68  66  93 S3        29.92F
6HR MIN TEMP:  68; 6HR MAX TEMP:  79;

WEST BEND      MOCLDY    70  66  88 CALM      29.92F
JUNEAU         CLOUDY    72  71  96 SW6       29.94F
6HR MIN TEMP:  72; 6HR MAX TEMP:  83;

$$

LSZ147-162-290700-
LAKE SUPERIOR

STATION/POSITION TIME  TEMP    WIND        PRES    WAVE
                       AIR SEA DIR/SP/G            HT/PER
                 (UTC) (F)     (DEG/KT/KT) (MB)    (FT/S)
W MID LAKE BUOY  0550   69 63  230/ 19/ 23 1006.8F   1/ 3
DEVILS ISLAND    0600   73     240/ 19/ 22 1007.5R
PORT WING        0500   76     230/ 10/ 16 1009.1R
SAXON HARBOR     0540   79                 1008.8R
$$

LMZ867-665-643>646-290700-
LAKE MICHIGAN

STATION/POSITION TIME  TEMP    WIND        PRES    WAVE
                       AIR SEA DIR/SP/G            HT/PER
                 (UTC) (F)     (DEG/KT/KT) (MB)    (FT/S)
CHAMBERS ISLAND  0500   76     160/  6/ 12 1012.2R


USA.gov is the U.S. government's official web portal to all federal, state and local government web resources and services.